| time (UTC) | temp F | wind direction | speed MPH | gust MPH | rain 1hr in | rain 24hr in | rain mn in | humidity % | barometer mb |
| 20260505075006 | 51 | 197 | 5.0 | 8.0 | 0.00 | 0.00 | 0.00 | 2 | 1009.9 |
| 20260505074008 | 51 | 198 | 6.0 | 9.0 | 0.00 | 0.00 | 0.00 | 2 | 1009.8 |
| 20260505073508 | 52 | 195 | 5.0 | 8.0 | 0.00 | 0.00 | 0.00 | 2 | 1009.8 |
| 20260505072009 | 52 | 196 | 6.0 | 9.0 | 0.00 | 0.00 | 0.00 | 2 | 1009.9 |
| 20260505071507 | 52 | 204 | 3.0 | 8.0 | 0.00 | 0.00 | 0.00 | 2 | 1009.9 |
| 20260505071007 | 51 | 196 | 6.0 | 9.0 | 0.00 | 0.00 | 0.00 | 2 | 1009.9 |
| 20260505070506 | 52 | 197 | 5.0 | 8.0 | 0.00 | 0.00 | 0.00 | 2 | 1009.8 |
| 20260505070006 | 52 | 197 | 5.0 | 8.0 | 0.00 | 0.00 | 0.00 | 2 | 1009.9 |
| 20260505065506 | 52 | 203 | 4.0 | 8.0 | 0.00 | 0.00 | 0.00 | 2 | 1009.9 |
| 20260505065006 | 52 | 210 | 4.0 | 7.0 | 0.00 | 0.00 | 0.00 | 2 | 1009.9 |
| 20260505064508 | 52 | 189 | 6.0 | 8.0 | 0.00 | 0.00 | 0.00 | 2 | 1010.0 |
| 20260505064006 | 52 | 203 | 5.0 | 8.0 | 0.00 | 0.00 | 0.00 | 2 | 1009.9 |
| 20260505063508 | 52 | 196 | 4.0 | 8.0 | 0.00 | 0.00 | 0.00 | 2 | 1009.9 |
| 20260505063007 | 52 | 198 | 5.0 | 9.0 | 0.00 | 0.00 | 0.00 | 2 | 1009.9 |
| 20260505062006 | 52 | 197 | 6.0 | 10.0 | 0.00 | 0.00 | 0.00 | 2 | 1009.9 |
| 20260505061506 | 53 | 205 | 5.0 | 9.0 | 0.00 | 0.00 | 0.00 | 2 | 1009.9 |
| 20260505060506 | 53 | 203 | 6.0 | 12.0 | 0.00 | 0.00 | 0.00 | 2 | 1010.0 |
| 20260505060006 | 52 | 202 | 6.0 | 9.0 | 0.00 | 0.00 | 0.00 | 2 | 1010.0 |
| 20260505055506 | 53 | 203 | 6.0 | 10.0 | 0.00 | 0.00 | 0.00 | 2 | 1010.0 |
| 20260505054006 | 53 | 196 | 6.0 | 10.0 | 0.00 | 0.00 | 0.00 | 2 | 1010.0 |
| 20260505053506 | 53 | 201 | 6.0 | 10.0 | 0.00 | 0.00 | 0.00 | 2 | 1010.0 |
| 20260505053006 | 53 | 204 | 7.0 | 10.0 | 0.00 | 0.00 | 0.00 | 2 | 1009.9 |
| 20260505052506 | 53 | 211 | 7.0 | 13.0 | 0.00 | 0.00 | 0.00 | 2 | 1009.9 |
| 20260505052006 | 53 | 214 | 7.0 | 12.0 | 0.00 | 0.00 | 0.00 | 2 | 1009.9 |
| 20260505051506 | 53 | 200 | 7.0 | 10.0 | 0.00 | 0.00 | 0.00 | 2 | 1010.0 |
| 20260505051006 | 53 | 198 | 6.0 | 12.0 | 0.00 | 0.00 | 0.00 | 2 | 1010.0 |
| 20260505050506 | 53 | 194 | 6.0 | 13.0 | 0.00 | 0.00 | 0.00 | 2 | 1010.0 |
| 20260505041506 | 53 | 193 | 7.0 | 12.0 | 0.00 | 0.00 | 0.00 | 2 | 1010.1 |
| 20260505041006 | 53 | 202 | 7.0 | 10.0 | 0.00 | 0.00 | 0.00 | 2 | 1010.1 |
| 20260505040507 | 53 | 206 | 7.0 | 13.0 | 0.00 | 0.00 | 0.00 | 2 | 1010.1 |
| 20260505040006 | 54 | 206 | 7.0 | 12.0 | 0.00 | 0.00 | 0.00 | 2 | 1010.1 |
| 20260505035506 | 53 | 197 | 8.0 | 13.0 | 0.00 | 0.00 | 0.00 | 2 | 1010.0 |
| 20260505035006 | 53 | 200 | 8.0 | 13.0 | 0.00 | 0.00 | 0.00 | 2 | 1010.1 |
| 20260505034506 | 54 | 205 | 7.0 | 13.0 | 0.00 | 0.00 | 0.00 | 2 | 1010.1 |
| 20260505034007 | 54 | 193 | 7.0 | 12.0 | 0.00 | 0.00 | 0.00 | 2 | 1010.1 |
| 20260505032507 | 54 | 199 | 7.0 | 13.0 | 0.00 | 0.00 | 0.00 | 2 | 1010.0 |
| 20260505032006 | 54 | 199 | 8.0 | 14.0 | 0.00 | 0.00 | 0.00 | 2 | 1010.0 |
| 20260505031505 | 54 | 196 | 7.0 | 13.0 | 0.00 | 0.00 | 0.00 | 2 | 1010.1 |
| 20260505030506 | 54 | 209 | 7.0 | 13.0 | 0.00 | 0.00 | 0.00 | 2 | 1010.3 |
| 20260505025506 | 54 | 207 | 9.0 | 13.0 | 0.00 | 0.00 | 0.00 | 2 | 1010.2 |
| 20260505025006 | 54 | 204 | 8.0 | 14.0 | 0.00 | 0.00 | 0.00 | 2 | 1010.2 |
| 20260505024506 | 55 | 193 | 7.0 | 13.0 | 0.00 | 0.00 | 0.00 | 2 | 1010.2 |
| 20260505024006 | 55 | 200 | 8.0 | 14.0 | 0.00 | 0.00 | 0.00 | 2 | 1010.1 |
| 20260505023506 | 55 | 193 | 8.0 | 15.0 | 0.00 | 0.00 | 0.00 | 2 | 1010.2 |
| 20260505022506 | 55 | 198 | 6.0 | 14.0 | 0.00 | 0.00 | 0.00 | 2 | 1010.1 |
| 20260505022005 | 55 | 198 | 7.0 | 15.0 | 0.00 | 0.00 | 0.00 | 2 | 1010.2 |
| 20260505020005 | 56 | 199 | 8.0 | 13.0 | 0.00 | 0.00 | 0.00 | 2 | 1010.1 |
| 20260505015506 | 56 | 213 | 7.0 | 15.0 | 0.00 | 0.00 | 0.00 | 2 | 1010.1 |
| 20260505015005 | 56 | 205 | 8.0 | 14.0 | 0.00 | 0.00 | 0.00 | 2 | 1010.1 |
| 20260505014506 | 56 | 202 | 9.0 | 14.0 | 0.00 | 0.00 | 0.00 | 2 | 1010.1 |
| 20260505014006 | 56 | 210 | 7.0 | 10.0 | 0.00 | 0.00 | 0.00 | 2 | 1010.0 |
| 20260505013506 | 56 | 206 | 10.0 | 15.0 | 0.00 | 0.00 | 0.00 | 2 | 1010.0 |
| 20260505013006 | 56 | 216 | 12.0 | 17.0 | 0.00 | 0.00 | 0.00 | 2 | 1010.0 |
| 20260505012506 | 56 | 196 | 7.0 | 13.0 | 0.00 | 0.00 | 0.00 | 2 | 1009.9 |
| 20260505012006 | 56 | 197 | 7.0 | 15.0 | 0.00 | 0.00 | 0.00 | 2 | 1009.9 |
| 20260505011510 | 57 | 193 | 7.0 | 15.0 | 0.00 | 0.00 | 0.00 | 2 | 1009.7 |
| 20260505010006 | 57 | 201 | 6.0 | 17.0 | 0.00 | 0.00 | 0.00 | 2 | 1009.5 |
| 20260505005506 | 57 | 207 | 7.0 | 18.0 | 0.00 | 0.00 | 0.00 | 2 | 1009.5 |
| 20260505005005 | 57 | 212 | 7.0 | 14.0 | 0.00 | 0.00 | 0.00 | 2 | 1009.3 |
| 20260505004506 | 57 | 206 | 9.0 | 15.0 | 0.00 | 0.00 | 0.00 | 2 | 1009.2 |
| 20260505004005 | 57 | 211 | 8.0 | 15.0 | 0.00 | 0.00 | 0.00 | 2 | 1009.1 |
| 20260505003505 | 58 | 203 | 7.0 | 17.0 | 0.00 | 0.00 | 0.00 | 2 | 1008.9 |
| 20260505003006 | 58 | 208 | 10.0 | 20.0 | 0.00 | 0.00 | 0.00 | 2 | 1008.8 |
| 20260505002006 | 58 | 194 | 11.0 | 21.0 | 0.00 | 0.00 | 0.00 | 2 | 1008.6 |
| 20260505001005 | 58 | 207 | 9.0 | 14.0 | 0.00 | 0.00 | 0.00 | 2 | 1008.4 |
| 20260505000505 | 59 | 201 | 10.0 | 18.0 | 0.00 | 0.00 | 0.00 | 2 | 1008.3 |
| 20260505000006 | 59 | 202 | 9.0 | 13.0 | 0.00 | 0.00 | 0.00 | 2 | 1008.3 |
| 20260504235504 | 59 | 200 | 11.0 | 18.0 | 0.00 | 0.00 | 0.00 | 2 | 1008.2 |
| 20260504235005 | 59 | 197 | 10.0 | 17.0 | 0.00 | 0.00 | 0.00 | 2 | 1008.1 |
| 20260504234504 | 60 | 204 | 9.0 | 18.0 | 0.00 | 0.00 | 0.00 | 2 | 1008.2 |
| 20260504234004 | 60 | 202 | 10.0 | 20.0 | 0.00 | 0.00 | 0.00 | 2 | 1008.1 |
| 20260504233505 | 61 | 197 | 13.0 | 17.0 | 0.00 | 0.00 | 0.00 | 2 | 1008.0 |
| 20260504233005 | 61 | 214 | 7.0 | 17.0 | 0.00 | 0.00 | 0.00 | 2 | 1008.0 |
| 20260504232505 | 61 | 201 | 7.0 | 15.0 | 0.00 | 0.00 | 0.00 | 2 | 1007.8 |
| 20260504231006 | 62 | 202 | 7.0 | 16.0 | 0.00 | 0.00 | 0.00 | 2 | 1007.5 |
| 20260504230504 | 62 | 196 | 12.0 | 18.0 | 0.00 | 0.00 | 0.00 | 2 | 1007.4 |
| 20260504225505 | 63 | 198 | 10.0 | 18.0 | 0.00 | 0.00 | 0.00 | 2 | 1007.2 |
| 20260504225005 | 63 | 196 | 9.0 | 20.0 | 0.00 | 0.00 | 0.00 | 2 | 1007.2 |
| 20260504224504 | 63 | 198 | 12.0 | 20.0 | 0.00 | 0.00 | 0.00 | 2 | 1007.1 |
| 20260504224005 | 64 | 207 | 13.0 | 23.0 | 0.00 | 0.00 | 0.00 | 2 | 1007.0 |
| 20260504223004 | 64 | 196 | 12.0 | 21.0 | 0.00 | 0.00 | 0.00 | 2 | 1006.9 |
| 20260504222504 | 64 | 204 | 15.0 | 29.0 | 0.00 | 0.00 | 0.00 | 2 | 1006.9 |
| 20260504222004 | 65 | 213 | 10.0 | 22.0 | 0.00 | 0.00 | 0.00 | 2 | 1006.9 |
| 20260504221505 | 64 | 209 | 14.0 | 23.0 | 0.00 | 0.00 | 0.00 | 2 | 1006.9 |
| 20260504221004 | 65 | 219 | 12.0 | 23.0 | 0.00 | 0.00 | 0.00 | 2 | 1006.7 |
| 20260504220505 | 65 | 193 | 14.0 | 24.0 | 0.00 | 0.00 | 0.00 | 2 | 1006.7 |
| 20260504220004 | 65 | 204 | 12.0 | 28.0 | 0.00 | 0.00 | 0.00 | 2 | 1006.8 |
| 20260504215504 | 64 | 209 | 14.0 | 26.0 | 0.00 | 0.00 | 0.00 | 2 | 1006.9 |
| 20260504214504 | 65 | 198 | 13.0 | 25.0 | 0.00 | 0.00 | 0.00 | 2 | 1006.8 |
| 20260504214004 | 65 | 197 | 17.0 | 26.0 | 0.00 | 0.00 | 0.00 | 2 | 1006.8 |
| 20260504213504 | 65 | 199 | 13.0 | 26.0 | 0.00 | 0.00 | 0.00 | 2 | 1006.7 |
| 20260504213004 | 65 | 199 | 14.0 | 30.0 | 0.00 | 0.00 | 0.00 | 2 | 1006.6 |
| 20260504212504 | 65 | 194 | 14.0 | 23.0 | 0.00 | 0.00 | 0.00 | 2 | 1006.7 |
| 20260504212004 | 66 | 217 | 9.0 | 24.0 | 0.00 | 0.00 | 0.00 | 2 | 1006.6 |
| 20260504211504 | 66 | 195 | 10.0 | 25.0 | 0.00 | 0.00 | 0.00 | 2 | 1006.6 |
| 20260504211004 | 66 | 193 | 15.0 | 28.0 | 0.00 | 0.00 | 0.00 | 2 | 1006.5 |
| 20260504210504 | 66 | 195 | 12.0 | 24.0 | 0.00 | 0.00 | 0.00 | 2 | 1006.4 |
| 20260504210005 | 66 | 189 | 16.0 | 23.0 | 0.00 | 0.00 | 0.00 | 2 | 1006.5 |
| 20260504205004 | 66 | 201 | 13.0 | 26.0 | 0.00 | 0.00 | 0.00 | 2 | 1006.5 |
| 20260504204504 | 67 | 201 | 10.0 | 18.0 | 0.00 | 0.00 | 0.00 | 2 | 1006.4 |
| 20260504204004 | 67 | 201 | 12.0 | 20.0 | 0.00 | 0.00 | 0.00 | 100 | 1006.5 |
| 20260504203504 | 67 | 211 | 13.0 | 21.0 | 0.00 | 0.00 | 0.00 | 100 | 1006.5 |
| 20260504202504 | 67 | 213 | 11.0 | 25.0 | 0.00 | 0.00 | 0.00 | 2 | 1006.4 |
| 20260504202005 | 67 | 198 | 13.0 | 25.0 | 0.00 | 0.00 | 0.00 | 2 | 1006.5 |
| 20260504201504 | 67 | 208 | 13.0 | 25.0 | 0.00 | 0.00 | 0.00 | 2 | 1006.5 |
| 20260504201004 | 68 | 213 | 11.0 | 20.0 | 0.00 | 0.00 | 0.00 | 100 | 1006.4 |
| 20260504200504 | 69 | 209 | 9.0 | 28.0 | 0.00 | 0.00 | 0.00 | 100 | 1006.3 |
| 20260504200004 | 68 | 200 | 13.0 | 26.0 | 0.00 | 0.00 | 0.00 | 100 | 1006.5 |
| 20260504195503 | 69 | 199 | 13.0 | 25.0 | 0.00 | 0.00 | 0.00 | 100 | 1006.4 |
| 20260504195004 | 69 | 195 | 11.0 | 20.0 | 0.00 | 0.00 | 0.00 | 100 | 1006.4 |
| 20260504194505 | 69 | 205 | 11.0 | 20.0 | 0.00 | 0.00 | 0.00 | 100 | 1006.3 |
| 20260504193504 | 72 | 196 | 2.0 | 12.0 | 0.00 | 0.00 | 0.00 | 100 | 1006.3 |
| 20260504193004 | 70 | 233 | 9.0 | 24.0 | 0.00 | 0.00 | 0.00 | 100 | 1006.4 |
| 20260504192504 | 70 | 214 | 10.0 | 26.0 | 0.00 | 0.00 | 0.00 | 100 | 1006.5 |
| 20260504192004 | 70 | 246 | 10.0 | 24.0 | 0.00 | 0.00 | 0.00 | 100 | 1006.3 |
| 20260504191504 | 71 | 250 | 6.0 | 20.0 | 0.00 | 0.00 | 0.00 | 100 | 1006.4 |
| 20260504191004 | 71 | 235 | 7.0 | 17.0 | 0.00 | 0.00 | 0.00 | 100 | 1006.4 |
| 20260504190504 | 70 | 243 | 10.0 | 24.0 | 0.00 | 0.00 | 0.00 | 2 | 1006.6 |
| 20260504190004 | 69 | 222 | 12.0 | 29.0 | 0.00 | 0.00 | 0.00 | 2 | 1006.5 |
| 20260504185504 | 70 | 225 | 10.0 | 22.0 | 0.00 | 0.00 | 0.00 | 2 | 1006.5 |
| 20260504185004 | 69 | 227 | 11.0 | 21.0 | 0.00 | 0.00 | 0.00 | 2 | 1006.6 |
| 20260504184503 | 69 | 234 | 10.0 | 23.0 | 0.00 | 0.00 | 0.00 | 2 | 1006.8 |
| 20260504184004 | 70 | 200 | 8.0 | 23.0 | 0.00 | 0.00 | 0.00 | 89 | 1006.6 |
| 20260504183004 | 71 | 243 | 5.0 | 13.0 | 0.00 | 0.00 | 0.00 | 2 | 1006.7 |
| 20260504182504 | 69 | 228 | 11.0 | 20.0 | 0.00 | 0.00 | 0.00 | 2 | 1006.8 |
| 20260504182004 | 69 | 206 | 13.0 | 28.0 | 0.00 | 0.00 | 0.00 | 100 | 1006.9 |
| 20260504181503 | 69 | 205 | 10.0 | 22.0 | 0.00 | 0.00 | 0.00 | 2 | 1006.8 |
| 20260504181004 | 69 | 204 | 12.0 | 21.0 | 0.00 | 0.00 | 0.00 | 2 | 1006.9 |
| 20260504180504 | 68 | 206 | 10.0 | 25.0 | 0.00 | 0.00 | 0.00 | 2 | 1007.0 |
| 20260504180004 | 69 | 222 | 10.0 | 25.0 | 0.00 | 0.00 | 0.00 | 100 | 1007.0 |
| 20260504175504 | 69 | 217 | 10.0 | 20.0 | 0.00 | 0.00 | 0.00 | 100 | 1007.0 |
| 20260504175004 | 69 | 230 | 12.0 | 22.0 | 0.00 | 0.00 | 0.00 | 2 | 1007.1 |
| 20260504174504 | 69 | 198 | 10.0 | 21.0 | 0.00 | 0.00 | 0.00 | 100 | 1006.9 |
| 20260504174004 | 69 | 235 | 12.0 | 21.0 | 0.00 | 0.00 | 0.00 | 100 | 1006.9 |
| 20260504173503 | 68 | 208 | 13.0 | 20.0 | 0.00 | 0.00 | 0.00 | 100 | 1006.8 |
| 20260504173004 | 69 | 238 | 9.0 | 26.0 | 0.00 | 0.00 | 0.00 | 100 | 1007.0 |
| 20260504172504 | 68 | 204 | 17.0 | 31.0 | 0.00 | 0.00 | 0.00 | 100 | 1006.8 |
| 20260504172004 | 70 | 211 | 5.0 | 15.0 | 0.00 | 0.00 | 0.00 | 2 | 1006.8 |
| 20260504171504 | 69 | 219 | 8.0 | 21.0 | 0.00 | 0.00 | 0.00 | 2 | 1006.7 |
| 20260504171003 | 69 | 253 | 9.0 | 25.0 | 0.00 | 0.00 | 0.00 | 2 | 1006.9 |
| 20260504151003 | 66 | 225 | 10.0 | 22.0 | 0.00 | 0.00 | 0.00 | 100 | 1008.5 |
| 20260504141004 | 63 | 208 | 7.0 | 17.0 | 0.00 | 0.00 | 0.00 | 2 | 1009.0 |
| 20260504140505 | 64 | 238 | 5.0 | 12.0 | 0.00 | 0.00 | 0.00 | 2 | 1009.1 |
| 20260504130504 | 60 | 204 | 3.0 | 8.0 | 0.00 | 0.00 | 0.00 | 2 | 1009.7 |